Presure
91 107 154 126 102 104 166 104 102 97 135 103 102 113 122 150 83 92 147 141 152 90 143 83 99 150 144 137 153 146 167 165 131 95 125 157 147 106 102 168 136 184 91 100 103 150 94 165 157
117 99 112 120 93 89 93 98 107 156 146 99 131 149 170 143 149 133 105 145 154 123 138 111 110 124 150 153 131 117 160 163 124 151 140 117 95 96 181 152 94 104 127 103 91 92 95 101 91
141 97 97 139 94 106 103 94 95 132 108 135 165 164 148 143 160 155 146 158 154 105 149 138 146 147 138 156 166 152 163 161 142 158 160 132 138 114 166 169 108 91 119 110 118 99 89 90 95
90 158 95 97 129 133 98 148 96 96 155 95 97 159 152 151 154 145 152 152 152 114 139 142 149 152 151 161 167 160 169 169 132 129 126 140 106 113 123 103 146 173 105 91 94 95 95 94 79
87 98 96 98 103 133 149 141 141 148 96 159 96 151 156 155 154 153 147 150 149 147 139 141 147 153 152 154 113 157 150 102 157 161 154 157 169 144 112 129 88 102 89 89 115 92 92 136 88
88 96 144 113 90 95 108 106 102 139 148 125 144 155 145 146 150 152 147 147 147 146 143 142 144 159 151 154 154 156 150 148 141 164 161 120 100 162 102 104 129 157 126 125 120 89 84 116 83
93 89 101 93 93 92 96 139 98 142 143 138 125 99 143 151 143 140 137 151 148 141 145 146 146 172 154 146 153 151 92 155 166 152 158 152 156 173 120 154 159 141 151 125 83 123 88 119 97
99 88 94 93 96 91 83 94 102 105 133 140 144 131 101 137 146 150 148 150 142 147 147 145 160 165 148 156 146 152 147 157 164 180 149 150 156 145 165 142 157 169 116 133 118 105 95 90 83
82 96 89 86 87 96 90 98 96 96 155 145 136 144 118 99 142 144 149 136 139 144 148 159 169 157 149 153 151 156 152 152 152 159 156 153 152 169 143 210 170 136 106 140 106 130 108 110 102
94 90 90 100 98 100 114 91 102 101 106 156 143 149 152 151 99 103 152 148 148 139 155 154 156 159 150 156 157 159 159 154 170 147 144 164 190 117 154 159 159 172 105 150 158 95 90 121 125
111 100 138 91 94 109 96 94 83 130 115 151 148 164 172 152 148 109 101 144 113 141 145 151 153 150 148 149 153 154 165 183 128 161 154 156 152 161 99 86 83 142 138 95 96 99 99 125 144
185 111 92 98 99 92 94 95 103 137 135 92 102 152 151 151 146 147 118 140 139 123 142 152 153 150 149 146 151 153 155 154 159 157 156 90 156 149 162 159 149 96 109 107 92 106 149 156 171
178 178 188 131 104 103 97 104 96 98 144 172 114 99 150 148 155 140 138 138 143 106 140 98 105 150 146 150 169 160 163 121 111 119 155 168 154 94 92 117 156 138 159 143 96 154 153 157 159
213 202 122 178 179 175 140 101 129 101 118 82 93 133 139 94 143 121 136 142 139 123 138 145 148 145 117 126 143 113 86 110 117 112 151 162 112 120 125 98 151 136 120 143 141 140 155 155 153
225 206 169 195 184 176 196 186 133 116 149 159 136 137 133 140 132 146 122 146 176 151 112 95 141 113 101 145 144 156 91 102 144 99 121 115 110 88 97 156 165 143 122 150 150 179 159 152 156
218 230 195 206 202 194 193 184 189 165 155 199 183 106 130 196 179 145 146 163 156 143 111 143 142 156 155 151 102 109 146 160 102 108 101 90 92 148 89 163 152 107 147 97 143 143 157 157 150
190 194 207 206 210 176 207 187 202 181 148 103 105 138 133 153 156 174 136 189 166 126 127 109 145 89 123 82 94 101 103 109 100 118 83 162 90 88 87 90 93 114 111 115 106 156 151 148 155
203 204 180 200 213 189 197 211 210 210 212 222 126 169 136 195 139 168 217 147 152 102 124 120 135 81 79 168 79 145 97 114 156 92 163 128 167 90 88 90 89 96 137 152 159 121 167 150 148
191 188 187 195 196 197 209 208 204 189 206 101 199 207 134 136 220 219 187 232 228 206 125 123 125 107 197 149 82 150 97 154 139 90 162 160 162 90 90 105 91 155 97 117 109 127 133 134 146
197 185 201 193 186 189 185 201 200 192 200 201 200 216 208 200 203 209 211 211 119 131 159 141 165 165 114 130 199 217 218 223 191 219 151 125 232 167 114 112 115 149 161 160 160 146 123 139 134
189 199 189 184 202 190 199 202 190 194 198 149 131 167 150 208 210 214 202 210 213 188 190 117 155 121 116 131 141 158 210 101 94 115 89 191 163 172 173 161 125 149 165 143 192 159 157 136 154
198 199 203 211 211 211 208 204 202 202 203 201 200 189 204 186 193 132 82 83 98 201 160 160 162 202 208 156 207 172 144 151 205 100 203 148 154 111 95 232 251 306 112 145 125 150 156 152 154
181 191 206 212 202 204 193 195 191 193 201 204 209 208 204 204 207 202 206 207 101 199 196 81 203 139 223 217 234 177 237 259 143 266 271 344 223 362 355 145 258 168 156 209 125 159 146 160 160
193 217 212 211 177 175 197 186 196 203 210 214 212 216 219 222 224 222 221 216 217 219 220 224 231 234 244 250 270 87 264 102 293 291 311 388 444 458 452 191 149 154 353 200 141 173 143 167 157
188 181 186 166 189 198 219 203 177 204 219 189 225 198 200 201 209 232 247 256 249 240 237 179 244 235 243 241 253 255 287 291 274 282 281 320 369 430 471 368 358 178 152 357 350 271 141 257 165
198 190 190 192 173 189 179 183 189 197 197 193 189 191 199 194 201 203 204 213 221 227 231 229 237 227 266 314 240 278 283 278 273 266 257 259 306 414 172 425 486 394 431 416 382 322 171 239 218
197 203 214 195 188 197 194 194 195 194 195 194 197 199 202 209 219 225 235 243 242 240 249 253 266 314 284 284 267 263 252 250 251 261 252 254 257 294 348 427 279 428 485 216 162 157 312 311 335
206 208 207 205 209 209 205 204 203 202 202 210 217 216 216 218 225 235 240 247 245 257 322 305 282 266 267 257 256 251 239 246 238 239 240 254 257 266 280 301 308 324 314 486 283 254 155 282 336
213 213 212 207 210 195 207 207 215 218 217 213 218 235 245 235 249 258 279 267 314 291 280 268 257 248 259 245 241 242 230 227 243 229 230 235 245 249 254 264 279 304 127 267 392 254 154 218 223
226 225 223 222 225 221 203 213 220 246 278 269 250 245 261 338 251 307 300 280 275 268 263 246 246 247 240 237 229 220 235 235 232 233 238 242 242 249 244 244 254 263 266 277 132 131 339 144 402
Wind_Speed
25 33 42 37 27 30 38 28 26 19 33 24 24 29 30 28 7 11 27 25 25 15 24 7 15 25 31 22 25 24 24 18 22 3 20 21 19 11 7 25 16 25 2 4 10 17 10 23 22
35 30 30 30 21 17 18 22 32 37 36 20 32 32 38 30 30 21 29 25 26 22 20 17 20 29 31 31 19 21 25 21 25 22 20 19 8 3 26 19 4 7 12 6 5 8 11 14 16
47 25 23 40 22 25 29 19 19 28 25 31 38 36 30 32 32 29 29 29 28 20 25 30 30 27 27 34 34 29 29 25 22 22 21 23 17 17 23 21 13 5 11 9 19 11 12 14 16
24 48 27 28 42 36 25 33 23 21 37 17 21 35 31 30 30 29 28 28 29 20 29 31 31 28 30 34 33 30 32 32 17 18 25 20 15 20 23 10 23 23 12 6 8 9 12 14 18
26 33 30 28 31 37 40 35 33 33 20 40 22 31 34 34 31 31 30 30 30 30 30 32 30 33 31 31 20 28 29 16 29 29 25 26 26 20 18 23 6 12 7 9 18 10 13 17 18
30 34 54 37 23 24 29 28 27 36 37 30 33 36 30 29 30 32 32 31 31 30 31 33 32 38 34 34 33 30 31 30 28 29 28 19 9 28 11 11 15 22 26 20 15 14 17 20 21
38 29 33 29 27 24 24 41 26 40 39 39 32 24 32 33 31 34 35 35 34 34 33 34 34 39 35 34 33 30 13 32 38 33 29 28 29 28 11 28 27 28 23 28 11 27 18 20 20
49 31 35 29 30 26 20 25 28 30 43 42 40 33 26 35 36 38 38 38 37 36 36 35 41 40 35 36 34 34 30 32 36 40 33 31 28 30 31 27 31 31 22 27 22 15 15 16 22
26 44 32 27 26 31 28 29 25 25 49 45 43 40 31 25 41 41 42 40 38 37 38 43 41 40 37 36 38 40 36 35 35 37 35 32 31 31 31 42 34 29 16 28 19 24 20 22 26
45 38 35 45 40 37 43 27 34 30 30 49 47 46 47 48 24 28 47 43 41 40 45 43 43 42 39 39 40 42 42 39 43 35 37 41 48 21 34 32 34 39 17 31 32 20 20 28 24
64 44 61 37 40 53 38 35 25 48 38 52 50 50 52 51 50 39 27 45 34 43 42 44 44 43 41 41 42 43 45 48 31 43 41 43 37 38 11 12 17 32 32 19 22 27 30 29 25
78 64 44 53 54 39 39 39 45 56 46 28 33 54 53 53 52 51 34 49 47 36 45 47 47 45 45 44 45 46 46 46 47 45 45 10 44 38 40 38 38 14 26 25 19 29 32 35 37
73 71 73 54 63 59 47 52 40 41 60 58 42 35 58 57 56 55 53 51 50 29 46 16 22 48 47 48 52 51 52 33 27 26 47 51 45 13 17 28 42 33 40 38 28 38 35 35 37
82 80 44 70 69 69 68 51 63 47 48 29 33 58 59 27 57 44 55 56 50 33 47 51 51 49 36 38 46 35 19 29 29 30 47 52 24 29 28 20 40 35 27 36 40 40 40 38 36
73 77 71 74 72 69 71 72 68 63 66 65 63 61 59 59 55 61 46 60 62 58 32 21 53 32 22 52 51 57 24 20 50 22 29 26 23 22 20 48 49 40 36 43 42 43 44 40 40
67 63 67 73 74 72 71 71 72 61 66 68 67 46 59 68 66 61 62 65 64 60 33 57 57 64 61 58 24 29 52 57 31 25 22 25 22 50 26 54 48 31 43 33 44 42 46 47 42
61 61 65 65 67 69 71 64 71 72 72 49 50 61 62 66 67 66 47 68 65 53 52 40 61 32 43 23 27 26 25 28 26 43 25 61 30 29 28 31 33 39 39 39 36 47 47 47 48
62 59 64 58 58 59 58 60 59 58 59 55 64 65 57 60 66 66 56 68 68 36 51 49 56 27 23 63 20 59 32 35 47 29 66 44 62 35 31 34 30 38 47 48 48 39 49 50 49
57 56 56 55 54 54 56 56 57 57 57 41 59 57 71 71 52 54 63 51 54 64 53 49 48 42 55 65 31 67 38 68 57 35 66 61 61 37 39 42 33 55 44 46 44 42 45 46 50
57 59 60 55 54 55 55 56 54 55 56 54 54 51 53 56 57 54 54 55 53 61 54 66 67 68 47 56 64 70 74 76 74 82 61 50 84 64 48 51 50 55 57 57 58 51 46 48 46
53 60 56 55 59 51 55 55 51 49 51 37 32 47 38 58 57 57 58 59 61 70 63 52 59 52 49 60 67 75 78 34 34 49 38 80 65 68 69 66 53 60 62 55 71 58 56 48 55
60 58 59 66 65 62 58 54 59 61 62 58 57 59 59 53 61 42 37 38 33 65 71 72 72 73 74 71 80 67 63 68 86 38 90 63 66 53 50 89 91 96 54 58 48 57 59 55 57
49 46 56 61 53 57 50 44 56 59 61 58 61 59 57 62 64 65 66 67 25 71 73 35 75 46 79 77 82 62 85 90 65 94 98 71 58 91 96 61 78 68 65 77 53 63 54 60 61
52 71 66 64 43 42 58 49 54 66 70 69 63 65 67 69 72 75 76 74 73 72 73 75 76 77 81 84 82 45 79 49 62 65 59 46 50 52 61 67 64 67 91 71 56 71 54 63 60
47 45 43 51 43 52 73 54 49 61 73 54 72 55 57 60 62 68 73 78 80 78 74 58 74 70 71 73 71 71 48 40 55 47 49 47 43 38 36 43 56 63 67 88 86 73 53 77 63
52 50 48 46 48 49 46 48 52 56 56 58 59 60 63 60 62 64 65 67 68 67 68 68 69 67 67 27 25 23 24 30 33 37 42 46 43 35 49 28 26 47 49 54 66 73 70 61 67
46 50 53 48 50 52 53 55 55 56 56 59 61 64 67 68 70 74 75 74 70 68 71 69 62 16 26 18 25 24 33 31 33 35 40 42 43 40 45 25 30 23 22 49 65 59 62 64 67
53 54 56 56 59 59 55 56 56 56 60 66 70 73 72 72 75 72 69 66 64 63 21 12 13 21 13 20 18 19 29 25 30 31 35 41 39 34 37 39 23 22 23 14 41 48 52 54 61
60 60 60 55 59 49 59 63 66 69 70 66 74 78 74 72 72 70 62 58 14 14 15 11 11 21 9 15 17 16 25 30 26 29 30 33 32 29 27 29 35 37 50 24 12 37 46 45 52
66 67 66 69 75 74 52 70 71 83 64 63 66 68 66 27 59 13 11 13 15 15 13 14 15 12 12 15 21 33 21 22 24 27 30 30 27 26 23 20 25 25 28 27 48 51 14 47 22
Wind_Direction
234 232 233 234 236 241 242 243 245 249 245 258 259 259 249 238 238 264 238 242 248 267 245 135 280 278 273 268 278 265 287 280 254 310 254 286 279 295 318 298 299 294 302 339 323 296 329 307 307
227 230 233 233 232 234 242 243 246 244 247 257 250 247 240 239 244 237 261 248 252 255 252 256 271 265 277 280 267 273 284 277 245 271 264 285 244 223 289 290 296 305 300 309 324 325 331 338 339
226 231 222 229 238 240 237 243 245 241 250 249 246 241 235 241 248 244 246 254 252 258 250 250 262 262 272 281 284 285 288 285 268 272 275 264 286 278 288 288 296 274 293 302 303 314 322 333 337
225 231 239 243 228 232 240 236 245 247 247 249 259 242 238 241 244 239 248 251 252 254 243 253 266 274 275 280 279 279 284 280 258 258 255 269 291 286 273 290 287 296 294 305 302 308 316 327 342
227 239 236 241 244 231 231 229 230 238 253 249 254 245 245 244 247 245 241 245 250 257 250 259 267 275 264 266 263 277 275 265 269 272 270 274 283 276 281 282 267 286 280 302 290 301 312 301 318
230 238 227 231 226 241 237 246 250 232 239 250 240 245 239 239 242 246 242 245 248 249 251 255 263 274 265 269 268 272 268 279 270 276 280 266 248 282 254 270 277 278 280 282 285 305 307 303 325
230 225 234 228 226 230 243 232 250 229 233 232 237 257 242 244 237 232 234 252 248 244 250 256 260 267 265 263 271 267 228 273 276 275 275 274 280 278 269 271 273 272 273 280 279 291 297 299 317
234 222 231 228 235 228 210 242 255 258 231 233 239 245 256 243 246 248 245 248 241 247 251 254 268 267 261 267 265 269 261 274 276 277 270 271 271 266 281 274 278 276 280 274 279 292 305 305 303
211 232 220 213 221 237 230 243 240 246 234 235 233 241 237 253 239 242 246 235 240 247 257 267 267 262 259 262 262 266 263 263 261 266 265 261 261 273 263 277 270 264 278 272 290 278 286 301 314
225 221 220 240 239 235 238 231 245 240 236 238 236 239 244 246 252 261 250 247 249 241 261 260 262 262 257 264 264 266 266 263 266 268 258 272 279 269 256 262 272 274 279 270 273 310 296 302 285
233 225 234 224 229 244 235 234 223 239 238 237 238 244 250 244 248 255 257 245 263 245 250 258 260 256 256 259 262 264 268 271 261 263 262 266 262 264 238 231 236 264 267 307 306 313 313 291 282
237 236 226 234 236 223 228 231 244 234 244 236 248 239 240 242 241 245 248 244 245 255 250 258 260 257 256 255 261 264 264 263 263 262 257 248 259 253 265 254 258 297 303 306 294 305 271 277 274
237 238 243 236 237 238 232 239 231 235 235 248 239 249 239 239 247 243 246 247 247 260 253 237 257 259 257 261 263 262 263 251 243 262 261 266 257 278 273 263 253 263 261 266 286 274 272 273 275
236 240 233 241 243 243 243 234 243 237 238 220 238 242 240 230 242 261 249 249 248 248 252 253 254 256 245 248 259 249 208 247 265 255 259 264 277 279 279 293 266 271 281 268 273 276 270 272 272
236 237 237 243 245 244 250 251 243 244 239 242 241 243 246 245 245 246 259 250 258 253 242 226 253 244 246 257 258 262 238 258 266 253 272 275 281 265 278 261 263 262 291 263 265 263 265 270 268
237 237 239 243 245 247 249 249 251 248 247 256 253 244 250 260 257 248 249 254 252 253 236 254 255 259 260 260 251 260 264 263 259 270 269 257 260 267 271 268 269 285 261 283 270 271 265 267 272
232 235 239 242 245 243 249 251 252 251 243 239 241 249 250 249 251 258 258 263 258 256 259 254 259 223 259 240 236 250 251 261 255 263 267 262 266 272 278 281 278 276 282 284 281 265 268 272 268
237 239 236 242 244 244 248 250 251 253 256 256 245 253 251 260 252 256 263 253 254 254 258 258 263 243 255 268 265 268 242 254 264 259 264 264 264 272 284 285 293 276 270 265 266 278 261 269 272
233 231 236 241 243 244 248 249 250 252 254 240 257 259 250 252 266 266 261 272 270 268 260 263 265 252 271 268 262 269 242 268 261 257 268 271 271 277 283 287 282 269 284 268 272 270 276 278 273
238 233 244 240 238 242 244 253 251 249 257 258 259 267 263 261 262 264 266 268 255 257 264 262 266 266 263 265 275 276 275 275 273 270 276 278 269 272 279 261 279 269 267 266 265 265 265 270 276
232 244 237 237 247 248 252 256 250 254 263 272 268 260 268 269 267 267 265 269 269 266 266 256 264 262 263 266 269 270 271 277 292 278 293 273 274 276 274 273 266 264 264 264 261 262 261 267 262
240 245 247 249 251 254 260 261 272 273 270 274 270 259 269 270 262 258 240 243 254 266 263 264 266 267 269 268 266 276 276 273 271 284 271 266 265 275 281 273 270 266 280 262 263 263 261 261 260
234 240 254 258 259 262 258 254 265 265 269 272 274 275 279 277 273 268 269 267 261 263 262 259 267 268 277 278 280 278 280 285 265 284 284 284 277 270 268 261 264 261 261 258 264 259 262 259 258
239 247 248 253 233 231 257 246 265 268 271 273 274 274 274 273 272 272 272 271 272 273 273 275 279 280 282 284 285 270 284 275 288 289 303 317 300 297 274 258 259 261 262 262 261 258 261 259 259
239 236 241 228 249 254 263 263 246 264 268 267 272 270 271 271 272 279 280 279 279 278 279 278 281 279 281 280 284 285 286 283 286 299 311 331 336 309 309 275 267 264 264 258 256 257 262 256 259
245 246 249 250 240 253 248 255 259 262 265 265 265 267 271 268 273 272 272 274 277 278 278 276 280 275 288 272 269 276 289 299 307 312 306 310 349 347 265 319 309 268 262 251 249 252 260 255 258
248 252 254 249 249 255 254 257 259 261 263 265 266 269 272 276 279 280 282 283 281 281 283 284 285 260 272 262 277 278 287 298 314 327 318 324 328 0 18 347 280 321 291 263 263 265 251 253 250
256 258 258 257 261 262 262 263 261 263 266 271 275 275 276 277 280 280 280 281 281 284 261 219 233 264 258 273 274 287 286 311 305 319 322 329 333 349 9 20 352 311 292 308 261 261 266 256 251
259 260 260 259 264 252 264 265 270 272 273 273 274 275 275 277 281 281 284 283 229 213 199 215 234 267 276 264 280 298 282 290 319 311 315 320 330 334 348 6 21 31 265 283 310 262 262 261 260
259 260 263 265 266 268 258 269 271 271 274 272 273 274 277 256 279 245 217 189 202 204 193 231 254 258 273 282 277 276 304 314 312 312 318 317 322 335 341 348 3 12 22 33 265 265 43 261 270